Regional Weather Roundup
Issued by NWS

Home | Current Version | Previous Version | Graphics & Text | Print | Product List | Glossary On
Versions: 1 2 3 4 5 6 7 8 9 10 11 12 13 14 15 16 17 18 19 20 21 22 23 24 25 26 27 28 29 30 31 32 33 34 35 36 37 38 39 40 41 42 43 44 45 46 47 48 49 50
000
ASUS43 KDTX 271610
RWRMI
MICHIGAN HOURLY REGIONAL WEATHER ROUNDUP
NATIONAL WEATHER SERVICE DETROIT/PONTIAC MI
1200 PM EDT SAT AUG 27 2016

NOTE: "FAIR" INDICATES FEW OR NO CLOUDS BELOW 12,000 FEET WITH NO
SIGNIFICANT WEATHER AND/OR OBSTRUCTION TO VISIBILITY.

MIZ047>049-052>055-059>063-066>070-074>076-081>083-271700-
SOUTHEAST LOWER MICHIGAN

CITY           SKY/WX    TMP DP  RH WIND       PRES   REMARKS
ADRIAN         PTSUNNY   78  67  68 SE6       30.13F
ALMA           LGT RAIN  66  66 100 S6        30.18S
ANN ARBOR      PTSUNNY   82  67  60 E9        30.13F
BAD AXE        CLOUDY    75  66  73 CALM      30.16F
CARO           CLOUDY    74  69  86 CALM      30.15S
DETROIT CITY   MOSUNNY   81  69  67 E10       30.14F
DETROIT        PTSUNNY   82  65  56 SE10      30.14F
FLINT          CLOUDY    80  68  66 SE7       30.13F
GROSSE ILE     MOSUNNY   82  67  59 SE9       30.13F
HILLSDALE      PTSUNNY   76  66  70 CALM      30.13S
HOWELL         CLOUDY    76  67  74 SE9       30.13F

CITY           SKY/WX    TMP DP  RH WIND       PRES   REMARKS
JACKSON        CLOUDY    77  67  71 SE3       30.12F
LAMBERTVILLE   CLOUDY    83  67  59 SE6       30.13S
LANSING        LGT RAIN  65  62  90 N8        30.16F
LAPEER         PTSUNNY   77  69  76 SE9       30.15F
MASON          LGT RAIN  70  65  83 NW14G20   30.14S
MONROE         MOSUNNY   81  69  65 SE7       30.12S
MT. CLEMENS    PTSUNNY   80  72  75 E15       30.13F
PONTIAC        PTSUNNY   79  65  62 SE12      30.13F
PORT HURON     PTSUNNY   79  72  78 SE9       30.16F
TRI CITIES     RAIN      68  67  96 N6        30.18S FOG
MIDLAND        LGT RAIN  66  65  99 CALM      30.16S
TROY           CLOUDY    83  65  54 SE7       30.15F
SAGINAW HB     RAIN      70  66  88 NW12      30.17R
$$
MIZ043>046-050>051-056>058-064>065-071>073-077>080-271700-
SOUTHWEST LOWER MICHIGAN

CITY           SKY/WX    TMP DP  RH WIND       PRES   REMARKS
BATTLE CREEK   LGT RAIN  64  64 100 NE6       30.13F
BENTON HARBOR  MOSUNNY   73  69  87 SE14      30.07F
BIG RAPIDS     LGT RAIN  67  65  96 SE10      30.13F
COLDWATER      HVY RAIN  67  67  99 N5        30.14S
FREMONT        LGT RAIN  65  65  99 SE6       30.10F
HOLLAND        CLOUDY    70  67  90 SE12      30.08F
GRAND RAPIDS   LGT RAIN  66  63  90 E13       30.11F FOG
IONIA          HVY RAIN  62  60  94 E7        30.14F
KALAMAZOO      CLOUDY    68  64  87 VRB3      30.13R
LUDINGTON      LGT RAIN  64  63  99 E9        30.09F
MARSHALL       CLOUDY    66  66 100 NE3       30.14R
MOUNT PLEASANT LGT RAIN  66  65  97 E3        30.16S
MUSKEGON       CLOUDY    69  67  93 E10       30.08F
SOUTH HAVEN    CLOUDY    72  71  96 SE7       30.07F
$$
MIZ016>042-271700-
NORTHERN LOWER MICHIGAN

CITY           SKY/WX    TMP DP  RH WIND       PRES   REMARKS
ALPENA         LGT RAIN  70  64  81 E6        30.19S
BEAVER ISLAND  DRIZZLE   66  63  91 E6        30.16F
BELLAIRE       LGT RAIN  65  62  90 SE5       30.16S
CADILLAC       LGT RAIN  64  62  93 E8        30.14F
CHARLEVOIX     RAIN      65  63  94 CALM      30.19S
FRANKFORT      RAIN      63  60  90 NE3       30.12F
GAYLORD        LGT RAIN  64  59  83 S10       30.19S
GRAYLING       RAIN      63  62  95 E3        30.19F
HARBOR SPRINGS DRIZZLE   64  62  93 E7        30.16F
HOUGHTON LAKE  LGT RAIN  64  62  93 E6        30.18F
MANISTEE       RAIN      64  63  96 E6        30.10F
OSCODA         DRIZZLE   70  63  78 W6        30.18S
PELLSTON       LGT RAIN  66  62  87 CALM      30.17F
ROGERS CITY    LGT RAIN  68  62  82 E5        30.19F
TRAVERSE CITY  LGT RAIN  65  61  87 E5        30.13F
$$
MIZ007>008-015-271700-
EASTERN UPPER MICHIGAN

CITY           SKY/WX    TMP DP  RH WIND       PRES   REMARKS
KINROSS        CLOUDY    63  57  81 SE8       30.19F
MACKINAC ISLAN CLOUDY    63  63 100 E7        30.18S
NEWBERRY       LGT RAIN  61  60  97 SE6       30.17F
S. S. MARIE    CLOUDY    63  57  81 VRB5      30.18F
$$
MIZ004>006-011>014-085-271700-
CENTRAL UPPER MICHIGAN

CITY           SKY/WX    TMP DP  RH WIND       PRES   REMARKS
MANISTIQUE     LGT RAIN  65  62  92 SE8       30.14F
ESCANABA       LGT RAIN  66  63  90 SE8       30.12F
MENOMINEE      LGT RAIN N/A N/A N/A S10       30.12F
SAWYER-GWINN   CLOUDY    66  59  77 S6        30.14F
$$
MIZ001>003-009>011-084-271700-
WESTERN UPPER MICHIGAN

CITY           SKY/WX    TMP DP  RH WIND       PRES   REMARKS
IRON MOUNTAIN  CLOUDY    66  58  75 SE6       30.12F
HOUGHTON       SUNNY     65  53  65 VRB7      30.12F
IRONWOOD       PTSUNNY   68  53  58 SE7       30.11F
$$

ABBREVIATIONS USED IN REMARKS
   TC - TEMPERATURE IN CELSIUS
  WCI - WIND CHILL INDEX
   HX - HEAT INDEX
  VSB - VISIBILITY





USA.gov is the U.S. government's official web portal to all federal, state and local government web resources and services.